TimeCST,TemperatureF,Dew PointF,Humidity,Sea Level PressureIn,VisibilityMPH,Wind Direction,Wind SpeedMPH,Gust SpeedMPH,PrecipitationIn,Events,Conditions,WindDirDegrees,DateUTC
12:15 AM,51.8,47.8,86,30.19,7.0,Calm,Calm,-,N/A,,Clear,0,2013-03-09 06:15:00
12:35 AM,50.0,48.2,94,30.16,5.0,East,5.8,-,N/A,,Clear,80,2013-03-09 06:35:00
12:55 AM,48.9,47.5,95,30.15,7.0,East,3.5,-,N/A,,Clear,100,2013-03-09 06:55:00
1:15 AM,50.7,49.6,96,30.14,7.0,East,5.8,-,N/A,,Clear,100,2013-03-09 07:15:00
1:35 AM,52.0,50.9,96,30.12,7.0,East,4.6,-,N/A,,Clear,90,2013-03-09 07:35:00
2:15 AM,53.2,52.5,97,30.12,5.0,Calm,Calm,-,N/A,,Clear,0,2013-03-09 08:15:00
2:35 AM,53.1,52.7,99,30.12,5.0,Calm,Calm,-,N/A,,Clear,0,2013-03-09 08:35:00
3:15 AM,50.5,49.8,97,30.11,5.0,East,3.5,-,N/A,,Clear,90,2013-03-09 09:15:00
3:35 AM,50.9,50.7,99,30.10,3.0,Calm,Calm,-,N/A,,Clear,0,2013-03-09 09:35:00
3:55 AM,50.4,50.2,99,30.10,5.0,Calm,Calm,-,N/A,,Clear,0,2013-03-09 09:55:00
4:15 AM,50.0,49.8,99,30.10,4.0,NE,3.5,-,N/A,,Clear,40,2013-03-09 10:15:00
4:35 AM,50.9,50.7,99,30.10,4.0,NE,3.5,-,N/A,,Clear,40,2013-03-09 10:35:00
4:55 AM,51.1,51.1,100,30.10,4.0,NE,3.5,-,N/A,,Clear,40,2013-03-09 10:55:00
6:50 AM,51.8,51.8,100,30.14,7.0,Calm,Calm,-,N/A,,Clear,0,2013-03-09 12:50:00
7:50 AM,55.4,55.4,100,30.15,7.0,ENE,5.8,-,N/A,,Clear,60,2013-03-09 13:50:00
8:50 AM,62.6,57.2,82,30.15,7.0,ENE,5.8,-,N/A,,Partly Cloudy,70,2013-03-09 14:50:00
9:50 AM,66.2,59.0,78,30.16,7.0,ESE,11.5,-,N/A,,Scattered Clouds,120,2013-03-09 15:50:00
10:50 AM,-9999,-9999,N/A,30.15,7.0,ESE,11.5,-,N/A,,Scattered Clouds,120,2013-03-09 16:50:00
11:48 AM,68.0,60.8,78,30.15,7.0,East,10.4,-,N/A,,Scattered Clouds,100,2013-03-09 17:48:00
12:50 PM,69.8,60.8,73,30.10,7.0,ESE,11.5,-,N/A,,Scattered Clouds,110,2013-03-09 18:50:00
1:50 PM,69.8,60.8,73,30.09,7.0,East,15.0,-,N/A,,Scattered Clouds,100,2013-03-09 19:50:00
2:50 PM,71.6,60.8,69,30.06,7.0,ESE,15.0,-,N/A,,Scattered Clouds,120,2013-03-09 20:50:00
3:48 PM,-9999,-9999,N/A,30.06,7.0,ESE,19.6,-,N/A,,Scattered Clouds,110,2013-03-09 21:48:00
4:50 PM,69.8,60.8,73,30.03,7.0,East,16.1,-,N/A,,Scattered Clouds,100,2013-03-09 22:50:00
5:50 PM,66.2,60.8,83,30.02,7.0,East,13.8,19.6,N/A,,Scattered Clouds,100,2013-03-09 23:50:00
6:15 PM,66.2,60.4,82,30.01,7.0,East,13.8,17.3,N/A,,Scattered Clouds,100,2013-03-10 00:15:00
6:35 PM,66.2,60.4,82,30.01,7.0,East,15.0,19.6,N/A,,Mostly Cloudy,100,2013-03-10 00:35:00
6:55 PM,65.7,60.4,83,30.00,7.0,ESE,10.4,-,N/A,,Mostly Cloudy,110,2013-03-10 00:55:00
7:15 PM,66.0,60.8,83,30.00,10.0,ESE,15.0,18.4,N/A,,Mostly Cloudy,110,2013-03-10 01:15:00
7:35 PM,65.8,61.2,85,29.99,10.0,ESE,15.0,20.7,N/A,,Mostly Cloudy,120,2013-03-10 01:35:00
7:55 PM,65.7,61.2,85,29.99,7.0,ESE,15.0,-,N/A,,Scattered Clouds,110,2013-03-10 01:55:00
8:15 PM,66.2,61.3,84,29.99,7.0,ESE,13.8,19.6,N/A,,Clear,120,2013-03-10 02:15:00
8:35 PM,65.7,61.3,86,29.99,7.0,ESE,12.7,17.3,N/A,,Clear,110,2013-03-10 02:35:00
8:55 PM,65.3,61.7,88,29.99,10.0,ESE,12.7,18.4,N/A,,Clear,120,2013-03-10 02:55:00
9:15 PM,65.7,61.9,88,29.99,10.0,ESE,11.5,-,N/A,,Clear,120,2013-03-10 03:15:00
9:35 PM,65.7,61.7,87,29.98,10.0,ESE,10.4,-,N/A,,Clear,120,2013-03-10 03:35:00
9:55 PM,65.5,61.7,88,29.97,10.0,ESE,16.1,-,N/A,,Clear,120,2013-03-10 03:55:00
10:15 PM,65.3,61.7,88,29.97,10.0,SE,13.8,19.6,N/A,,Clear,130,2013-03-10 04:15:00
10:35 PM,65.3,61.7,88,29.96,7.0,ESE,13.8,19.6,N/A,,Clear,120,2013-03-10 04:35:00
10:55 PM,64.9,61.7,89,29.96,7.0,ESE,11.5,-,N/A,,Clear,120,2013-03-10 04:55:00
11:15 PM,65.3,61.7,88,29.96,7.0,SE,11.5,19.6,N/A,,Clear,130,2013-03-10 05:15:00
11:35 PM,64.6,61.7,90,29.94,7.0,ESE,10.4,-,N/A,,Scattered Clouds,120,2013-03-10 05:35:00
11:55 PM,65.5,62.1,89,29.94,7.0,ESE,10.4,-,N/A,,Overcast,120,2013-03-10 05:55:00